[[{"header":{"parameterUnit":"m.s-1","parameterCategory":1,"la1":30.2992,"la2":30.254,"lo1":-89.0895,"lo2":-89.0443,"dy":0.0025,"dx":0.0025,"nx":19,"ny":19,"refTime":"2026-05-04T03:00:00:Z","depth":0,"parameterNumber":2,"parameterNumberName":"U-component_of_WINDS"},"data":[0,0,0,-0.2106,-0.2107,-0.2185,-0.2185,-0.2277,-0.2277,0,0,0,0,0,0,0,0,0,0,0,-0.2076,-0.2076,-0.2106,-0.2107,-0.2185,-0.2185,-0.2276,-0.2277,0,0,0,0,0,0,0,0,0,0,0,-0.2076,-0.2076,-0.2077,-0.2108,-0.2185,-0.2185,-0.2276,-0.2221,0,0,0,0,0,0,0,0,0,0,-0.2148,-0.2112,-0.2076,-0.2077,-0.2108,-0.2185,-0.2185,-0.2219,-0.2225,-0.2238,0,-0.2245,0,-0.2262,-0.2283,-0.2283,0,0,0,-0.2113,-0.2107,-0.2134,-0.2077,-0.2109,-0.2184,-0.2152,-0.2222,-0.2229,-0.2245,-0.2246,-0.225,-0.2264,-0.2283,-0.2284,-0.2334,-0.2334,0,0,-0.2109,-0.2086,-0.213,-0.2138,-0.2123,-0.2149,-0.2154,-0.2226,-0.2227,-0.2247,-0.2252,-0.2265,-0.2284,-0.2284,-0.2334,-0.2334,0,0,0,-0.2093,-0.2083,-0.2109,-0.2134,-0.2149,-0.2151,-0.2157,-0.2224,-0.2234,-0.2254,-0.2266,-0.2284,-0.2285,-0.2334,-0.2334,-0.231,0,0,0,-0.2091,-0.2074,-0.2107,-0.2094,-0.2147,-0.2187,-0.2152,-0.2229,-0.2238,-0.2266,-0.2284,-0.2286,-0.2335,-0.2334,-0.2311,-0.2302,0,0,0,-0.2073,-0.2072,-0.208,-0.2092,-0.2124,-0.2186,-0.22,-0.2231,-0.2245,-0.2283,-0.2286,-0.2335,-0.2334,-0.2311,-0.2304,-0.2309,0,0,0,-0.2049,-0.2058,-0.208,-0.2095,-0.2124,-0.2169,-0.22,-0.2236,-0.2265,-0.2285,-0.2334,-0.2334,-0.2312,-0.2304,-0.231,-0.231,-0.2308,0,0,-0.2048,-0.2057,-0.2068,-0.209,-0.2126,-0.2159,-0.2193,-0.2242,-0.2268,-0.2311,-0.2313,-0.231,-0.2304,-0.2309,-0.2303,-0.2301,0,0,0,-0.206,-0.2068,-0.2082,-0.2108,-0.2145,-0.2177,-0.2224,-0.2242,-0.228,-0.2285,-0.2315,-0.2312,-0.2316,-0.2317,-0.2315,-0.2321,-0.2334,-0.2334,-0.2334,-0.2026,-0.2057,-0.2078,-0.2119,-0.2144,-0.2192,-0.2217,-0.225,-0.2275,-0.2282,-0.2295,-0.2286,-0.2287,-0.2286,-0.2291,-0.2297,-0.2297,-0.2297,-0.2297,-0.2028,-0.2044,-0.2076,-0.2108,-0.2142,-0.217,-0.2218,-0.2234,-0.2267,-0.2279,-0.2285,-0.2295,-0.2282,-0.2289,-0.2296,-0.2296,-0.2296,-0.2296,-0.2296,-0.2009,-0.2022,-0.2044,-0.2086,-0.2115,-0.2158,-0.2187,-0.2217,-0.2246,-0.2252,-0.227,-0.227,-0.2275,-0.2258,-0.2258,-0.2258,-0.2258,-0.2258,-0.2258,-0.1981,-0.2006,-0.2026,-0.2067,-0.2088,-0.2121,-0.2171,-0.2194,-0.2227,-0.2247,-0.2248,-0.2272,-0.2275,-0.2275,-0.2258,-0.2258,-0.2258,-0.2258,-0.2258,-0.1971,-0.1978,-0.2008,-0.203,-0.2082,-0.211,-0.2148,-0.2193,-0.2217,-0.2231,-0.2255,-0.2252,-0.2264,-0.2266,-0.2266,-0.2247,-0.2247,-0.2247,-0.2247,-0.1955,-0.1964,-0.2002,-0.2035,-0.2071,-0.2109,-0.2146,-0.2186,-0.2229,-0.2246,-0.2253,-0.2257,-0.2257,-0.2269,-0.2271,-0.2271,-0.2254,-0.2254,-0.2254,-0.1951,-0.1965,-0.1988,-0.2028,-0.2072,-0.2109,-0.2145,-0.2183,-0.2234,-0.2255,-0.226,-0.226,-0.2266,-0.2266,-0.2286,-0.2288,-0.229,0,0]},{"header":{"parameterUnit":"m.s-1","parameterCategory":1,"la1":30.2992,"la2":30.254,"lo1":-89.0895,"lo2":-89.0443,"dy":0.0025,"dx":0.0025,"nx":19,"ny":19,"refTime":"2026-05-04T03:00:00:Z","depth":0,"parameterNumber":3,"parameterNumberName":"V-component_of_WINDS"},"data":[0,0,0,6.8214,6.8215,6.8257,6.8257,6.8315,6.8315,0,0,0,0,0,0,0,0,0,0,0,6.8205,6.8206,6.8214,6.8215,6.8257,6.8257,6.8315,6.8315,0,0,0,0,0,0,0,0,0,0,0,6.8205,6.8206,6.8206,6.8215,6.8257,6.8257,6.8314,6.8281,0,0,0,0,0,0,0,0,0,0,6.8239,6.8236,6.8206,6.8207,6.8215,6.8257,6.8257,6.8279,6.8283,6.8298,0,6.8314,0,6.8316,6.832,6.832,0,0,0,6.8211,6.8233,6.8241,6.8207,6.8216,6.8257,6.8237,6.8281,6.8286,6.8303,6.8314,6.8316,6.8317,6.832,6.832,6.8421,6.8422,0,0,6.8209,6.8215,6.8238,6.8244,6.8239,6.8236,6.8238,6.8284,6.8296,6.8315,6.8318,6.8317,6.832,6.8321,6.8421,6.8421,0,0,0,6.8205,6.8213,6.822,6.8241,6.8249,6.8237,6.824,6.8294,6.8296,6.8318,6.8318,6.8321,6.8322,6.842,6.8421,6.8458,0,0,0,6.8203,6.8211,6.8219,6.8223,6.8248,6.8272,6.8249,6.8293,6.8298,6.8318,6.8321,6.8322,6.8419,6.842,6.8455,6.8474,0,0,0,6.8201,6.821,6.8218,6.8223,6.8241,6.8271,6.8276,6.8293,6.8298,6.832,6.8322,6.8419,6.842,6.8453,6.847,6.8502,0,0,0,6.82,6.825,6.8219,6.8274,6.8241,6.8295,6.8275,6.8314,6.8338,6.8321,6.8419,6.8421,6.8452,6.8468,6.8499,6.8529,6.8542,0,0,6.8265,6.8258,6.829,6.8263,6.8324,6.8288,6.8353,6.8368,6.8365,6.8402,6.8405,6.8456,6.847,6.8501,6.8615,6.8625,0,0,0,6.8312,6.8335,6.835,6.8373,6.8387,6.84,6.8406,6.8411,6.8443,6.8386,6.8476,6.8484,6.8502,6.8516,6.8525,6.854,6.8428,6.8428,6.8427,6.8411,6.8405,6.8458,6.8457,6.8479,6.8485,6.8502,6.851,6.8497,6.8518,6.8529,6.8599,6.8615,6.8622,6.8638,6.8545,6.8545,6.8545,6.8545,6.8506,6.8537,6.8519,6.8563,6.8556,6.8592,6.8599,6.8588,6.862,6.859,6.8606,6.8573,6.8634,6.8647,6.8548,6.8547,6.8547,6.8547,6.8547,6.857,6.8583,6.8591,6.8624,6.865,6.8647,6.8679,6.8671,6.8663,6.8679,6.8689,6.8688,6.8686,6.8685,6.8685,6.8685,6.8685,6.8686,6.8686,6.8633,6.864,6.8668,6.8688,6.8702,6.8719,6.8725,6.8738,6.875,6.8742,6.8742,6.8725,6.8641,6.862,6.8689,6.8689,6.8688,6.8688,6.8688,6.8729,6.8706,6.8751,6.8765,6.8787,6.8813,6.8803,6.883,6.884,6.8855,6.8836,6.8776,6.8766,6.8759,6.8741,6.8838,6.8838,6.8838,6.8838,6.8782,6.8778,6.8821,6.8844,6.8866,6.8861,6.891,6.8915,6.8917,6.8922,6.8907,6.8883,6.8876,6.8871,6.8861,6.8844,6.8965,6.8965,6.8965,6.8841,6.8838,6.8882,6.8884,6.8901,6.8915,6.8961,6.8987,6.8983,6.897,6.8926,6.892,6.8881,6.8869,6.8854,6.8839,6.8808,0,0]}]]